Location: Bílinka
(49.3579°N, 14.3767°E)
Time: 22:16:15
(UTC+00:00)

DMSP B5D1-3 - Pass Details

Date: 28 January 2023
Orbit: 766 x 778 km, 98.5° (Epoch: 28 March)

Event Time Altitude Azimuth Distance (km) Brightness Sun altitude
Exits shadow 18:12:17 10° 15° (NNE) 2,304 6.8 -22.8°
Maximum altitude 18:17:22 90° 294° (WNW) 777 4.4 -23.7°
Drops below altitude 10° 18:22:29 10° 197° (SSW) 2,311 7.1 -24.5°
Sets 18:24:47 0° 197° (SSW) 3,235 7.9 -24.9°
